Content
SEND FEEDBACK

Daily
Averages
Monthly
Summary
Iran

MASHHAD, IRAN


Home > Middle East > Iran
Elevation: 3214 feet     Latitude: 36 16N     Longitude: 059 38E

WEATHER
 
SELECT A DAY
Number of Records: 214,043;   Date Range: 2/9/98 - 12/25/14
 
SHARE

PRINT THIS DATA

[ ← Previous Day ]
WEATHER ALMANAC - JUNE 29, 2013
[ Next Day → ]
[ °C ]   °F
We're sorry. There is no daily almanac available for Mashhad, Iran on June 29, 2013.
WEATHER BY HOUR - JUNE 29, 2013
[ °C ]   °F
Local TimeTemperatureDewpointHumidityBarometerVisibilityWind DirectionWind SpeedGust SpeedPrecipitationEventsConditions
12:30 AM73.4 °F46.4 °F38 %29.89 in6.2 miWNW (290°)4.6 mphPartly Cloudy
12:55 AM71.6 °F44.6 °F38 %29.86 in6.2 miCalmPartly Cloudy
1:20 AM71.6 °F46.4 °F41 %29.86 in6.2 miWSW (250°)4.6 mphPartly Cloudy
1:30 AM71.6 °F46.4 °F41 %29.86 in6.2 miWSW (250°)4.6 mphPartly Cloudy
2:00 AM69.8 °F46.4 °F43 %29.86 in6.2 miCalmPartly Cloudy
2:30 AM69.8 °F46.4 °F43 %29.86 in6.2 miSouth (170°)4.6 mphPartly Cloudy
3:00 AM69.8 °F46.4 °F43 %29.86 in6.2 miSouth (180°)4.6 mphScattered Clouds
3:30 AM69.8 °F46.4 °F43 %29.86 in6.2 miSouth (190°)4.6 mphScattered Clouds
4:00 AM69.8 °F46.4 °F43 %29.86 in6.2 miSouth (190°)4.6 mphScattered Clouds
4:20 AM68.0 °F46.4 °F46 %29.86 in6.2 miSSE (150°)4.6 mphScattered Clouds
4:30 AM68.0 °F47.0 °F35 %29.68 in7.0 miSSE (150°)4.5 mphScattered Clouds
5:00 AM68.0 °F46.4 °F46 %29.86 in6.2 miSouth (170°)6.9 mphScattered Clouds
5:30 AM68.0 °F46.4 °F46 %29.86 in6.2 miCalmScattered Clouds
6:00 AM68.0 °F50.0 °F52 %29.86 in6.2 miWest (270°)4.6 mphScattered Clouds
6:30 AM73.4 °F48.2 °F41 %29.89 in6.2 miNW (320°)6.9 mphScattered Clouds
7:00 AM73.4 °F48.2 °F41 %29.89 in6.2 miNW (320°)6.9 mphScattered Clouds
7:30 AM75.2 °F48.2 °F38 %29.89 in6.2 miWNW (300°)9.2 mphPartly Cloudy
8:00 AM77.0 °F48.2 °F36 %29.89 in6.2 miNW (310°)11.5 mphPartly Cloudy
8:30 AM77.0 °F46.4 °F34 %29.89 in6.2 miNNW (340°)6.9 mphPartly Cloudy
9:20 AM80.6 °F46.4 °F30 %29.89 in6.2 miNE (40°)9.2 mphPartly Cloudy
10:00 AM80.6 °F44.6 °F28 %29.89 in6.2 miNNE (20°)11.5 mphPartly Cloudy
10:20 AM82.4 °F44.6 °F26 %29.89 in6.2 miENE (60°)13.8 mphPartly Cloudy
10:30 AM82.0 °F45.0 °F17 %9.0 miENE (60°)13.4 mph
10:30 AM82.4 °F44.6 °F26 %29.89 in6.2 miENE (60°)13.8 mphPartly Cloudy
11:00 AM82.4 °F44.6 °F26 %29.89 in6.2 miSE (140°)6.9 mphScattered Clouds
11:30 AM82.4 °F44.6 °F26 %29.86 in6.2 miNNW (340°)11.5 mphScattered Clouds
12:00 PM82.4 °F42.8 °F25 %29.86 in6.2 miWNW (290°)9.2 mphScattered Clouds
12:30 PM82.4 °F42.8 °F25 %29.86 in6.2 miESE (110°)11.5 mphScattered Clouds
1:00 PM86.0 °F41.0 °F20 %29.86 in6.2 miSSE (150°)6.9 mphScattered Clouds
1:30 PM84.2 °F41.0 °F22 %29.83 in6.2 miEast (80°)16.1 mphScattered Clouds
2:00 PM87.8 °F39.2 °F18 %29.80 in6.2 miENE (60°)13.8 mphScattered Clouds
2:30 PM87.8 °F39.2 °F18 %29.80 in6.2 miEast (90°)11.5 mphScattered Clouds
3:00 PM84.2 °F39.2 °F20 %29.80 in6.2 miSSE (160°)6.9 mphMostly Cloudy
3:20 PM84.2 °F42.8 °F23 %29.80 in6.2 miNorth (10°)6.9 mphMostly Cloudy
3:30 PM84.2 °F42.8 °F23 %29.80 in6.2 miNorth (10°)6.9 mphMostly Cloudy
4:00 PM78.8 °F51.8 °F39 %29.80 in6.2 miNNE (20°)25.3 mphMostly Cloudy
4:20 PM80.6 °F50.0 °F34 %29.80 in6.2 miNE (40°)18.4 mphMostly Cloudy
4:30 PM81.0 °F49.0 °F23 %29.62 in9.0 miNE (40°)17.9 mphMostly Cloudy
4:30 PM80.6 °F50.0 °F34 %29.80 in6.2 miNE (40°)18.4 mphMostly Cloudy
5:00 PM82.4 °F46.4 °F28 %29.80 in6.2 miNorth (10°)11.5 mphScattered Clouds
5:30 PM82.4 °F44.6 °F26 %29.80 in6.2 miNNE (30°)13.8 mphScattered Clouds
6:00 PM80.6 °F46.4 °F30 %29.80 in6.2 miNNE (30°)13.8 mphPartly Cloudy
6:30 PM82.4 °F46.4 °F28 %29.80 in6.2 miNNE (30°)13.8 mphScattered Clouds
6:55 PM80.6 °F44.6 °F28 %29.80 in6.2 miNNE (30°)11.5 mphScattered Clouds
7:30 PM78.8 °F42.8 °F28 %29.83 in6.2 miNE (40°)9.2 mphScattered Clouds
8:00 PM78.8 °F41.0 °F26 %29.83 in6.2 miNorth (360°)6.9 mphScattered Clouds
8:30 PM77.0 °F42.8 °F29 %29.83 in6.2 miNNE (30°)9.2 mphScattered Clouds
9:00 PM75.2 °F44.6 °F34 %29.83 in6.2 miENE (60°)6.9 mphScattered Clouds
9:30 PM73.4 °F44.6 °F36 %29.83 in6.2 miNE (50°)4.6 mphPartly Cloudy
9:55 PM75.2 °F44.6 °F34 %29.86 in6.2 miCalmPartly Cloudy
10:30 PM75.0 °F46.0 °F25 %29.65 in9.0 miSSW (200°)4.5 mphScattered Clouds
10:30 PM75.2 °F46.4 °F36 %29.86 in6.2 miSSW (200°)4.6 mphPartly Cloudy
10:55 PM75.2 °F44.6 °F34 %29.86 in6.2 miSSW (200°)4.6 mphPartly Cloudy
11:20 PM75.2 °F46.4 °F36 %29.86 in6.2 miSW (230°)4.6 mphPartly Cloudy
11:30 PM75.2 °F46.4 °F36 %29.86 in6.2 miSW (230°)4.6 mphPartly Cloudy
Hourly data recorded from OIMM, located miles away from Mashhad, Iran







STORIES FROM OUR PARTNERS